Location: Unspecified
(42.9300°N, 71.1866°W)
Time: 21:25:20

Envisat - Visible Passes

Search period start: 22 October 2016 00:00
Search period end: 01 November 2016 00:00
Orbit: 765 x 766 km, 98.3° (Epoch: 22 October)

Date Brightness Start Highest point End Pass type
(mag) Time Alt. Az. Time Alt. Az. Time Alt. Az.
22 Oct 5.4 20:53:47 13° N 20:53:47 13° N 20:54:22 10° N visible
23 Oct 5.3 20:16:48 12° N 20:16:48 12° N 20:17:11 10° N visible
24 Oct 5.8 21:20:01 10° NNW 21:20:01 10° NNW 21:20:05 10° NNW visible
25 Oct 5.5 20:43:01 11° N 20:43:01 11° N 20:43:14 10° N visible
